Temperature
16 16 16 15 15 16 16 16 16 16 16 16 16 16 15 15 15 15 15 15 15 15 15 15 15 15 15 15 15 15 15 15 15 15 15 15 15 15 15 15 15 15 15
16 16 15 15 15 16 16 16 16 16 16 16 15 15 15 15 15 15 15 15 15 15 15 15 15 15 15 15 15 15 15 15 15 15 14 14 14 14 14 14 14 14 14
16 16 15 15 15 15 15 16 16 16 16 15 15 15 15 15 15 15 15 15 15 15 15 15 15 15 15 15 15 15 15 15 14 14 14 14 14 14 14 14 14 14 14
16 15 15 15 15 15 15 15 15 15 15 15 15 15 15 15 15 15 15 15 15 15 15 15 15 15 15 15 14 14 14 14 14 14 14 14 14 14 14 14 14 14 14
15 15 15 15 15 15 15 15 15 15 15 15 15 15 15 15 15 15 15 15 15 15 15 15 15 15 15 14 14 14 14 14 14 14 14 14 14 14 14 14 14 14 14
15 15 15 15 15 15 15 15 15 15 15 15 15 15 15 15 15 15 15 15 15 15 14 14 15 14 14 14 14 14 14 14 14 14 14 14 14 14 14 14 14 14 13
14 14 14 14 15 15 15 14 15 15 15 15 15 15 15 15 15 15 15 15 15 15 14 14 14 14 14 14 14 14 14 14 14 14 13 13 13 13 13 13 13 13 13
14 14 14 14 14 14 14 14 14 15 15 15 15 15 15 15 15 15 14 15 15 14 14 14 14 14 14 14 14 14 13 13 13 13 13 13 13 13 13 13 13 13 13
14 14 14 14 14 14 14 14 14 14 14 15 15 15 15 14 14 14 14 14 14 14 14 14 14 14 14 14 13 13 13 13 13 13 13 13 13 13 13 13 13 13 13
13 13 13 13 14 14 14 14 14 14 14 14 14 14 14 14 14 14 14 14 14 14 14 14 14 14 13 13 13 13 13 13 13 12 12 12 12 12 12 13 13 13 13
13 13 13 13 13 13 14 14 14 14 14 14 14 14 14 14 14 14 14 14 14 14 14 14 13 13 13 13 13 13 13 12 12 12 12 12 12 12 12 12 12 12 12
12 13 13 13 13 13 13 13 13 14 14 14 14 14 14 14 14 14 14 14 14 14 13 13 13 13 13 13 12 12 12 12 12 12 12 12 12 12 12 12 12 12 12
12 12 12 12 12 13 13 13 13 13 13 13 14 13 13 13 13 14 14 13 13 13 13 13 13 13 12 12 12 12 12 12 12 12 11 11 11 11 11 11 11 11 11
12 12 12 12 12 12 12 13 13 13 13 13 13 13 13 13 13 13 13 13 13 13 13 13 13 12 12 12 12 12 11 11 11 11 11 11 11 11 11 11 11 11 11
11 12 12 12 12 12 12 12 12 13 13 13 13 13 13 13 13 13 13 13 13 13 12 12 12 12 12 12 11 11 11 11 11 11 11 11 11 11 11 11 10 10 10
11 12 11 11 11 12 12 12 12 12 12 12 12 12 12 12 12 12 12 12 12 12 12 12 12 12 11 11 11 11 11 11 11 11 11 11 11 11 10 10 10 10 10
11 11 11 11 11 11 11 11 11 11 12 12 12 12 12 12 12 12 12 12 12 12 12 12 11 11 11 11 11 10 10 10 10 10 10 10 10 10 10 10 10 10 10
11 11 11 11 11 11 11 11 11 11 11 11 11 12 12 12 12 12 12 12 11 11 11 11 11 11 11 11 10 10 10 10 10 10 10 10 10 10 10 10 10 9 9
11 11 11 11 11 10 10 10 11 11 11 11 11 11 11 11 11 11 11 11 11 11 11 11 11 11 11 10 10 10 10 10 9 9 9 9 9 9 9 9 9 9 9
10 10 10 10 10 10 10 10 10 10 10 10 11 11 11 11 11 11 11 11 11 10 10 10 10 10 10 10 10 10 10 9 9 9 9 9 9 9 9 9 9 9 9
10 10 10 10 10 10 10 10 10 10 10 10 10 10 10 10 10 10 10 10 10 10 10 10 10 10 10 10 9 9 9 9 9 9 9 9 9 9 8 8 8 8 8
10 10 10 10 10 9 9 10 10 10 10 10 10 10 10 10 10 10 10 10 10 10 10 10 10 9 9 9 9 9 9 9 9 9 8 8 8 8 8 8 8 8 8
10 10 10 10 9 9 9 9 9 9 9 9 10 10 10 10 10 10 9 9 9 9 9 9 9 9 9 9 9 9 8 8 8 8 8 8 8 8 8 8 8 7 7
9 9 9 9 9 9 9 9 9 9 9 9 9 9 9 9 9 9 9 9 9 9 9 9 9 9 9 9 8 8 8 8 8 8 8 8 8 8 7 7 7 7 7
9 9 9 9 9 9 9 9 9 9 9 9 9 9 9 9 9 9 9 9 9 8 8 8 8 8 8 8 8 8 8 8 7 7 7 7 7 7 7 7 7 7 7
9 9 9 9 9 9 9 9 9 9 9 8 8 8 8 8 8 8 8 8 8 8 8 8 8 8 8 8 8 7 7 7 7 7 6 7 7 7 7 7 6 6 6
Wind_Speed
3 5 8 9 10 11 11 12 12 12 12 12 12 12 11 11 11 10 10 10 9 9 9 9 10 10 10 10 10 10 10 10 11 11 10 9 9 9 9 9 9 9 9
5 7 10 9 10 11 11 12 12 12 12 12 12 12 11 11 10 9 9 9 9 9 9 9 9 9 9 9 9 9 10 10 10 11 10 9 8 8 8 7 7 7 8
5 8 10 11 11 10 11 12 12 12 12 11 11 11 11 10 10 9 9 9 8 9 9 9 9 9 9 9 9 9 9 10 10 10 10 9 7 7 7 7 6 6 6
4 7 10 11 12 11 11 11 12 12 11 11 10 10 10 10 9 9 8 8 8 8 8 9 9 9 8 9 9 9 9 9 9 9 8 8 6 6 6 6 6 6 6
3 6 10 13 12 11 11 11 11 11 11 11 10 10 10 9 9 8 8 8 8 8 8 9 9 8 8 8 9 9 9 9 9 9 7 7 6 6 6 6 6 6 6
2 5 10 13 12 12 11 10 11 10 10 11 10 10 9 9 9 8 8 8 8 8 8 8 8 8 8 8 8 8 8 8 9 9 7 7 6 6 7 7 6 6 5
2 3 7 12 12 12 11 10 11 11 10 10 10 10 9 9 8 8 8 8 8 8 7 8 8 8 8 8 8 8 8 8 8 8 7 6 6 7 8 8 7 7 6
3 3 6 10 11 11 11 10 10 10 10 9 9 9 9 8 8 8 7 7 7 7 7 7 7 7 8 8 8 9 9 8 7 6 5 5 5 7 7 7 7 8 8
3 3 4 7 9 10 10 10 9 10 10 9 8 8 8 8 8 8 7 7 7 7 7 7 7 7 8 9 9 9 8 8 7 6 5 5 5 6 7 7 7 8 8
3 4 4 5 7 8 8 10 9 9 10 9 8 8 8 8 8 7 7 7 7 7 7 7 7 8 9 9 9 9 9 8 7 6 5 5 7 7 7 7 8 8 9
3 3 4 5 7 7 7 8 8 8 9 9 8 8 8 8 8 7 7 7 7 7 7 7 7 8 9 9 9 9 9 8 7 6 5 6 7 7 7 8 7 8 8
4 3 4 4 5 6 7 7 8 7 8 8 8 8 7 7 7 7 7 7 7 7 7 7 8 8 9 9 9 9 9 8 7 6 6 6 6 7 8 8 8 9 9
4 4 4 4 4 5 5 6 6 6 6 7 7 7 8 7 7 7 7 6 6 7 7 7 8 8 8 8 8 8 8 8 7 7 7 7 7 7 8 9 9 9 9
4 4 3 3 3 4 5 4 5 5 5 5 6 7 7 5 5 5 5 5 6 6 6 7 7 7 8 8 8 7 8 7 7 7 8 8 8 8 8 8 8 9 9
5 4 3 3 3 3 4 3 4 4 4 5 5 5 6 5 4 4 4 4 5 6 6 5 6 6 6 6 6 7 6 7 7 8 8 9 9 8 8 8 8 8 9
6 5 4 3 4 5 4 3 3 4 4 5 5 5 6 6 5 4 3 3 4 4 5 5 5 4 4 4 4 5 5 6 6 7 8 8 9 9 9 9 8 8 8
5 5 5 4 4 5 5 4 4 4 4 5 4 5 5 5 5 5 3 2 3 4 5 6 5 5 3 3 3 4 5 5 5 6 7 8 8 9 9 9 8 8 7
5 6 5 5 5 4 4 4 4 4 4 4 4 5 4 5 5 5 3 2 3 4 4 3 3 3 3 3 2 2 3 4 5 5 7 7 7 7 8 9 8 8 8
5 6 6 5 5 4 4 4 5 4 4 4 4 4 4 4 4 5 3 3 4 4 3 3 3 2 2 2 2 2 2 2 3 4 5 6 6 7 7 8 8 8 8
4 5 5 5 5 5 4 3 3 3 2 3 3 3 4 4 4 4 4 3 4 2 2 2 3 3 2 2 2 3 2 2 2 3 3 4 5 6 7 7 7 7 8
3 4 5 5 5 5 3 2 2 1 1 1 2 3 4 4 4 4 3 3 3 2 2 3 3 3 3 2 2 2 2 2 2 1 2 2 3 4 5 5 5 5 6
4 4 4 5 5 5 3 2 2 2 1 0 1 2 3 4 3 3 3 2 2 2 2 2 2 2 2 2 2 2 1 2 2 1 1 1 1 3 3 3 3 3 4
4 5 5 5 5 4 4 3 3 3 2 1 0 0 1 3 3 3 3 3 2 2 2 2 2 3 2 1 2 3 2 2 2 2 1 0 1 1 1 2 2 2 2
4 3 4 4 5 5 5 5 5 3 2 2 2 1 1 2 3 3 3 4 3 2 2 2 2 2 3 2 1 1 2 2 2 1 2 1 1 1 2 2 2 2 1
3 3 3 3 3 4 5 6 5 3 2 1 1 2 1 1 2 2 3 3 3 2 2 2 2 2 2 3 2 2 1 1 1 2 2 2 2 2 2 2 2 2 2
2 2 3 4 3 4 4 4 5 5 4 3 2 2 1 1 1 1 2 2 3 3 2 2 2 3 2 2 2 2 2 2 2 2 2 2 3 3 2 2 2 2 2
Wind_Direction
184 178 168 155 152 148 145 139 132 126 122 119 117 115 114 111 107 102 99 96 92 90 90 88 86 85 84 83 81 77 73 70 68 67 68 71 73 74 72 70 67 61 64
170 174 167 157 150 148 146 142 135 129 124 121 119 118 115 112 108 102 99 97 94 91 93 91 88 88 85 82 80 78 75 71 68 67 66 65 69 72 72 73 70 67 65
152 165 165 159 146 143 144 143 138 132 127 123 120 119 118 114 110 106 101 98 96 90 89 90 89 88 87 85 83 80 76 73 68 65 63 56 62 71 71 72 75 69 68
153 160 163 157 147 141 141 142 140 135 130 127 122 118 116 113 111 108 106 103 98 93 88 87 88 89 87 88 85 82 78 72 66 62 58 52 53 63 66 67 68 68 64
139 154 162 155 148 142 139 138 138 139 135 130 126 120 117 115 112 107 103 102 98 95 91 89 89 89 89 91 88 83 77 71 65 59 57 48 41 55 65 65 62 60 58
113 143 160 155 149 144 137 139 140 136 137 133 129 126 121 118 114 109 105 104 101 98 95 92 90 87 88 88 86 80 74 72 68 60 55 43 34 50 63 63 60 57 59
129 129 153 155 149 145 141 139 141 136 131 133 132 128 125 118 116 110 105 104 103 101 99 95 90 86 84 84 82 78 76 74 70 59 50 36 33 56 65 61 57 55 55
142 129 145 151 147 143 140 138 138 134 130 127 129 129 125 118 113 110 105 103 102 102 100 96 93 88 87 81 79 79 79 77 70 58 49 32 35 55 59 57 56 59 60
123 106 113 135 141 141 137 135 134 135 132 127 125 127 124 119 116 110 107 106 103 103 101 98 94 91 86 81 78 79 80 77 71 59 49 32 39 55 59 61 63 62 60
119 111 99 107 117 122 128 131 129 132 130 125 122 119 119 119 115 108 105 109 105 103 101 98 97 94 86 83 80 81 80 76 67 56 40 40 50 56 60 64 64 64 62
134 117 100 100 107 112 117 120 116 121 124 121 118 115 113 110 106 101 102 107 103 102 100 99 97 95 90 84 82 83 81 75 70 53 40 47 53 57 60 60 62 64 62
169 133 107 100 110 109 110 108 101 105 112 114 115 112 110 108 105 105 100 100 100 97 98 95 95 93 88 82 80 79 77 74 67 53 41 45 52 58 59 61 63 64 64
175 139 118 109 101 105 108 109 105 106 107 109 113 115 110 103 99 97 91 87 88 89 84 83 82 84 86 86 83 78 76 72 64 55 44 48 54 58 59 61 62 63 62
163 143 122 112 111 100 105 106 110 108 108 108 113 120 114 104 94 90 87 85 83 86 83 80 80 82 83 86 89 82 74 71 65 57 49 52 55 59 57 56 61 62 61
163 151 138 130 129 128 115 105 104 104 117 119 117 122 126 117 115 97 85 85 84 89 89 85 85 84 80 78 82 85 76 70 68 63 54 56 59 59 58 58 58 60 59
168 157 142 144 145 138 129 111 109 113 125 118 113 118 126 124 121 110 90 81 80 93 100 98 94 91 82 80 75 78 78 73 69 65 62 61 61 60 57 55 55 54 53
166 153 152 149 138 131 125 124 114 123 130 121 121 122 125 126 123 117 103 86 80 101 103 97 88 84 81 76 73 74 75 75 76 70 68 63 60 58 55 51 49 47 47
160 152 155 154 140 132 124 122 118 125 133 128 127 123 126 128 127 115 109 93 89 101 101 106 102 90 76 75 74 65 67 74 78 78 74 67 63 59 54 49 44 43 45
170 156 154 146 142 131 122 113 105 101 119 128 123 120 127 128 129 118 112 102 103 96 100 120 101 101 91 75 81 70 61 65 67 79 71 68 64 62 57 48 43 42 42
155 150 147 140 138 128 116 102 92 74 73 101 114 124 132 133 138 125 108 105 102 100 112 125 116 88 98 95 82 61 43 53 64 68 69 69 64 62 57 50 44 38 40
139 146 149 145 143 140 136 135 126 112 70 73 105 122 130 131 133 124 116 108 106 113 127 126 124 106 80 81 83 46 18 30 61 65 63 70 54 53 54 48 41 39 35
166 163 159 158 158 160 156 139 128 126 109 124 103 108 129 134 140 136 129 127 125 116 112 101 115 126 91 77 112 109 17 345 350 16 39 82 48 38 31 25 28 28 29
179 179 175 166 162 161 143 119 100 81 69 64 158 152 132 141 140 138 142 137 134 133 135 127 130 137 145 89 86 128 143 228 294 315 318 351 359 17 337 346 347 349 358
199 186 171 166 160 161 154 153 154 158 184 215 210 189 124 135 141 153 162 150 145 144 149 157 149 143 149 156 112 80 133 158 176 302 308 313 315 287 294 311 303 301 304
179 172 166 159 161 165 165 167 161 164 184 186 158 153 146 109 135 158 166 159 154 154 164 166 143 147 156 163 162 147 109 95 134 175 265 305 324 293 283 279 271 277 283
151 157 158 163 173 175 172 171 174 175 168 162 190 187 186 181 177 176 172 169 167 160 176 181 165 167 161 155 160 168 167 168 179 171 225 271 296 296 301 292 270 271 278
Height
1515 1518 1520 1522 1524 1525 1527 1528 1529 1530 1531 1532 1533 1534 1535 1535 1536 1537 1537 1537 1538 1538 1539 1539 1539 1539 1540 1540 1540 1540 1541 1541 1542 1542 1542 1543 1543 1543 1543 1544 1544 1544 1544
1514 1517 1519 1521 1523 1525 1526 1528 1529 1530 1531 1532 1533 1534 1535 1535 1536 1537 1537 1537 1538 1538 1539 1539 1539 1540 1540 1540 1540 1541 1541 1542 1542 1543 1543 1543 1544 1544 1544 1544 1544 1544 1545
1514 1516 1518 1521 1523 1524 1526 1528 1529 1530 1531 1532 1533 1534 1535 1535 1536 1537 1537 1538 1538 1538 1539 1539 1539 1540 1540 1540 1541 1541 1541 1542 1543 1543 1543 1544 1544 1544 1545 1545 1545 1545 1545
1513 1515 1518 1520 1522 1524 1526 1527 1529 1530 1531 1532 1533 1534 1535 1535 1536 1537 1537 1538 1538 1538 1539 1539 1539 1540 1540 1541 1541 1541 1542 1542 1543 1543 1544 1544 1544 1545 1545 1545 1545 1545 1545
1513 1515 1517 1520 1522 1523 1525 1527 1528 1530 1531 1532 1533 1534 1534 1535 1536 1537 1537 1538 1538 1539 1539 1539 1540 1540 1540 1541 1541 1541 1542 1542 1543 1543 1544 1544 1545 1545 1545 1545 1545 1545 1546
1513 1515 1517 1519 1521 1523 1525 1526 1528 1529 1530 1531 1532 1533 1534 1535 1536 1536 1537 1538 1538 1539 1539 1539 1540 1540 1541 1541 1541 1542 1542 1543 1543 1543 1544 1544 1545 1545 1545 1545 1546 1546 1546
1512 1514 1516 1518 1520 1522 1524 1525 1527 1529 1530 1531 1532 1533 1534 1534 1535 1536 1537 1537 1538 1539 1539 1539 1540 1540 1541 1541 1541 1542 1542 1543 1543 1544 1544 1544 1545 1545 1545 1545 1545 1545 1545
1512 1514 1515 1517 1519 1521 1523 1525 1526 1528 1529 1530 1531 1532 1533 1534 1535 1536 1536 1537 1538 1538 1539 1539 1540 1540 1541 1541 1541 1542 1542 1543 1543 1544 1544 1544 1545 1545 1545 1545 1545 1545 1545
1512 1513 1514 1516 1518 1520 1522 1524 1525 1527 1529 1530 1531 1532 1533 1533 1534 1535 1536 1537 1537 1538 1538 1539 1539 1540 1540 1541 1541 1542 1542 1543 1543 1544 1544 1544 1545 1545 1545 1545 1545 1545 1545
1511 1512 1513 1514 1517 1519 1521 1523 1525 1526 1527 1529 1530 1531 1532 1533 1534 1534 1535 1536 1537 1537 1538 1539 1539 1540 1540 1541 1541 1542 1542 1543 1543 1543 1544 1544 1544 1544 1544 1544 1544 1544 1544
1509 1510 1511 1513 1515 1517 1520 1521 1523 1525 1526 1528 1529 1530 1531 1532 1533 1534 1534 1535 1536 1537 1537 1538 1539 1539 1540 1540 1541 1541 1542 1542 1543 1543 1544 1544 1544 1544 1544 1544 1544 1544 1543
1506 1508 1509 1511 1513 1516 1518 1520 1522 1524 1525 1527 1528 1529 1530 1531 1532 1533 1534 1534 1535 1536 1537 1537 1538 1539 1539 1540 1540 1541 1541 1542 1542 1543 1543 1544 1544 1544 1544 1544 1544 1543 1543
1504 1505 1507 1509 1512 1514 1517 1519 1520 1522 1524 1525 1527 1528 1529 1530 1531 1532 1533 1533 1534 1535 1536 1537 1537 1538 1539 1539 1540 1540 1541 1541 1542 1542 1543 1543 1543 1543 1543 1543 1543 1543 1542
1502 1503 1506 1508 1510 1513 1515 1517 1519 1520 1522 1524 1525 1527 1528 1529 1530 1531 1532 1532 1533 1534 1535 1536 1536 1537 1538 1539 1539 1540 1540 1541 1541 1542 1542 1542 1542 1543 1543 1543 1543 1542 1542
1501 1502 1505 1507 1509 1511 1514 1515 1517 1518 1521 1522 1524 1525 1527 1528 1529 1530 1531 1531 1532 1533 1534 1535 1535 1536 1537 1538 1539 1539 1540 1540 1541 1541 1541 1541 1542 1542 1542 1542 1542 1541 1541
1500 1502 1504 1507 1509 1510 1512 1514 1516 1517 1519 1520 1522 1524 1525 1527 1528 1528 1529 1530 1531 1532 1533 1534 1535 1535 1536 1537 1538 1538 1539 1539 1540 1540 1540 1540 1541 1541 1541 1541 1541 1540 1540
1498 1501 1503 1505 1507 1509 1511 1513 1514 1516 1517 1519 1521 1523 1524 1525 1526 1527 1528 1529 1530 1531 1532 1533 1533 1534 1535 1536 1537 1537 1537 1538 1538 1539 1539 1539 1539 1539 1539 1539 1539 1539 1539
1497 1500 1502 1504 1506 1508 1510 1511 1513 1514 1516 1517 1520 1521 1522 1523 1525 1526 1527 1527 1529 1529 1530 1531 1532 1533 1534 1535 1535 1536 1536 1537 1537 1538 1538 1538 1538 1538 1538 1538 1538 1538 1537
1497 1498 1500 1503 1504 1506 1508 1509 1511 1512 1514 1516 1518 1519 1521 1522 1523 1525 1525 1526 1527 1528 1529 1530 1531 1532 1532 1533 1534 1534 1535 1536 1536 1536 1536 1537 1537 1537 1537 1537 1537 1536 1536
1495 1497 1499 1501 1503 1505 1506 1508 1509 1511 1513 1514 1516 1518 1519 1520 1522 1523 1524 1525 1526 1526 1527 1528 1529 1530 1531 1532 1532 1533 1533 1534 1534 1535 1535 1535 1535 1536 1536 1535 1535 1535 1534
1494 1496 1498 1500 1502 1503 1505 1506 1508 1510 1511 1513 1515 1516 1517 1519 1520 1521 1522 1523 1524 1525 1525 1526 1527 1528 1529 1530 1531 1531 1532 1532 1532 1533 1533 1534 1534 1534 1534 1534 1533 1533 1532
1493 1495 1497 1499 1501 1502 1504 1505 1506 1508 1509 1511 1513 1514 1516 1517 1518 1519 1520 1521 1522 1523 1523 1524 1525 1526 1526 1527 1528 1529 1530 1531 1530 1531 1531 1531 1532 1532 1532 1531 1531 1531 1530
1492 1494 1496 1498 1499 1501 1503 1504 1505 1507 1507 1509 1511 1512 1513 1514 1516 1516 1518 1519 1520 1521 1521 1522 1523 1523 1524 1525 1526 1527 1528 1527 1528 1529 1529 1529 1529 1529 1529 1529 1529 1528 1528
1491 1493 1495 1496 1498 1499 1501 1502 1504 1505 1506 1507 1508 1510 1511 1512 1513 1514 1516 1516 1517 1518 1519 1520 1521 1521 1522 1522 1523 1524 1526 1525 1526 1525 1526 1526 1526 1526 1526 1526 1526 1525 1525
1490 1492 1494 1495 1496 1498 1499 1501 1502 1503 1504 1506 1506 1507 1508 1509 1510 1511 1512 1513 1514 1515 1516 1517 1518 1519 1519 1519 1520 1521 1522 1522 1523 1523 1522 1522 1523 1523 1523 1523 1522 1522 1521
1489 1491 1492 1494 1495 1496 1498 1499 1500 1501 1502 1503 1504 1504 1505 1506 1507 1508 1509 1510 1511 1512 1513 1514 1515 1516 1517 1517 1518 1519 1519 1519 1520 1519 1519 1518 1519 1519 1519 1519 1519 1519 1518